AirNav   Air Wisconsin pilot careers
 
 1283 users online  

KMEY James G Whiting Memorial Field Airport
Mapleton, Iowa, USA

GOING TO MAPLETON?


FAA INFORMATION EFFECTIVE 13 SEPTEMBER 2018

Location

FAA Identifier: MEY
Lat/Long: 42-10-41.8620N / 095-47-37.1230W
42-10.697700N / 095-47.618717W
42.1782950 / -95.7936453
(estimated)
Elevation: 1116 ft. / 340.2 m (surveyed)
Variation: 05E (1995)
From city: 1 mile N of MAPLETON, IA
Time zone: UTC -5 (UTC -6 during Standard Time)
Zip code: 51034

Airport Operations

Airport use: Open to the public
Activation date: 08/1967
Control tower: no
ARTCC: MINNEAPOLIS CENTER
FSS: FORT DODGE FLIGHT SERVICE STATION
NOTAMs facility: FOD (NOTAM-D service available)
Attendance: MON-FRI 0800-1700
Wind indicator: lighted
Segmented circle: no
Lights: ACTVT REIL RY 20 - CTAF.
Beacon: white-green (lighted land airport)
Operates sunset to sunrise.

Airport Communications

CTAF/UNICOM: 122.8
SIOUX CITY APPROACH: 124.6
SIOUX CITY DEPARTURE: 124.6
  • APCH/DEP SVC PROVIDED BY MINNEAPOLIS ARTCC ON FREQS 119.6/290.4 (OMAHA RCAG) WHEN SIOUX CITY ATCT CLSD.

Nearby radio navigation aids

VOR radial/distance  VOR name  Freq  Var
SUXr104/25.6SIOUX CITY VORTAC116.5009E

 
NDB name  Hdg/Dist  Freq  Var  ID
DENISON298/21.835004EDNS -.. -. ...
SAC CITY247/38.035604ESKI ... -.- ..

Airport Services

Fuel available: 100
Parking: hangars and tiedowns
Airframe service: MAJOR
Powerplant service: MAJOR
Bottled oxygen: NONE
Bulk oxygen: NONE

Runway Information

Runway 2/20

Dimensions: 2801 x 60 ft. / 854 x 18 m
Surface: concrete, in fair condition
Weight bearing capacity: 
PCN 9 /R/C/W/U
Single wheel: 28.0
Double wheel: 48.0
Runway edge lights: low intensity
RUNWAY 2  RUNWAY 20
Latitude: 42-10.488000N42-10.908850N
Longitude: 095-47.745083W095-47.491633W
Elevation: 1116.0 ft.1116.0 ft.
Traffic pattern: leftleft
Runway heading: 019 magnetic, 024 true199 magnetic, 204 true
Markings: nonprecision, in fair conditionnonprecision, in fair condition
Runway end identifier lights: noyes
Touchdown point: yes, no lightsyes, no lights
Obstructions: 62 ft. tree, 1448 ft. from runway, 139 ft. right of centerline, 20:1 slope to clear25 ft. trees, 708 ft. from runway, 127 ft. left of centerline, 20:1 slope to clear

Airport Ownership and Management from official FAA records

Ownership: Publicly-owned
Owner: CITY OF MAPLETON
513 MAIN
MAPLETON, IA 51034
Phone 712-881-1351
Manager: KARLA UHL
106 CHAMBERLIN
MAPLETON, IA 51034
Phone 712-882-1836

Airport Operational Statistics

Aircraft based on the field: 13
Single engine airplanes: 11
Ultralights: 2
    
Aircraft operations: avg 62/week *
57% transient general aviation
43% local general aviation
* for 12-month period ending 30 June 2016

Additional Remarks

RY 20 IS CALM WIND RY.

Instrument Procedures

NOTE: All procedures below are presented as PDF files. If you need a reader for these files, you should download the free Adobe Reader.

NOT FOR NAVIGATION. Please procure official charts for flight.
FAA instrument procedures published for use from 13 September 2018 at 0901Z to 11 October 2018 at 0900Z.

 
IAPs - Instrument Approach Procedures
RNAV (GPS) RWY 02 **CHANGED**   download (147KB)
RNAV (GPS) RWY 20 **CHANGED**   download (154KB)
NOTE: Special Take-Off Minimums/Departure Procedures apply   download (233KB)

Other nearby airports with instrument procedures:

KDNS - Denison Municipal Airport (22 nm SE)
KSUX - Sioux Gateway Airport/Col. Bud Day Field (29 nm NW)
KTQE - Tekamah Municipal Airport (30 nm SW)
KCKP - Cherokee County Regional Airport (35 nm N)
KSLB - Storm Lake Municipal Airport (35 nm NE)
 
Loc | Ops | Rwys | IFR | FBO | Links
Com | Nav | Svcs | Stats | Notes


 
Area around KMEY (James G Whiting Memorial Field Airport)
 
Road maps at: MapQuest Bing Google
 
Aerial photo
WARNING: Photo may not be current or correct
Aerial photo of KMEY (James G Whiting Memorial Field Airport)
Photo by Iden Mersereau
Photo taken 08-Jul-2018
looking east.

Do you have a better or more recent aerial photo of James G Whiting Memorial Field Airport that you would like to share? If so, please send us your photo.

 
Sectional chart

 
Airport distance calculator
Flying to James G Whiting Memorial Field Airport? Find the distance to fly.

From to KMEY

Sunrise and sunset
Times for 20-Sep-2018
 Local
(UTC-5)
 Zulu
(UTC)
Morning civil twilight06:4111:41
Sunrise07:0912:09
Sunset19:2400:24
Evening civil twilight19:5200:52

Current date and time
Zulu (UTC)  20-Sep-2018 13:57:00
Local (UTC-5)  20-Sep-2018 08:57:00
 
METAR
KDNS 
23nm SE 
201335Z AUTO 02009KT 9SM FEW005 FEW080 SCT090 20/20 A2983 RMK AO2
KSUX 
29nm NW 
201252Z 10011KT 10SM FEW011 SCT022 BKN055 19/18 A2979 RMK AO2 LTG DSNT SE RAB18E31 SLP081 P0000 T01890178
KTQE 
30nm SW 
201254Z AUTO 02004KT 10SM FEW013 BKN075 21/21 A2976 RMK AO2 LTG DSNT NE RAB11E23 SLP065 P0000 T02110206
KCKP 
35nm N 
201335Z AUTO 09010G17KT 10SM SCT025 OVC032 18/18 A2984 RMK AO2 LTG DSNT NE T01830177
KSLB 
36nm NE 
201335Z AUTO 09011KT 10SM OVC013 18/17 A2982 RMK AO2
KLRJ 
40nm NW 
201335Z AUTO 03009G18KT 10SM -DZ FEW030 OVC036 18/16 A2982 RMK AO2
KHNR 
41nm SE 
201335Z AUTO 18010KT 10SM FEW080 24/21 A2979 RMK AO2
TAF
KSUX 
29nm NW 
201140Z 2012/2112 09012G22KT 6SM -SHRA VCTS BKN080CB FM201300 14012G22KT P6SM VCSH SCT070 FM201500 21015G25KT P6SM BKN060 FM202000 28025G40KT 4SM TSRA BKN050CB FM202200 31018G28KT P6SM SCT030 BKN120
NOTAMs
Click for the latest NOTAMs
NOTAMs are issued by the DoD/FAA and will open in a separate window not controlled by AirNav.

 

 
 

FBO, Fuel Providers, and Aircraft Ground Support

  
 Business Name 
 
 Contact 
 
 Services / Description 
 
Fuel Prices
 
Comments
  
Ashley Flying Service 712-881-2764
no information available

If you are affiliated with Ashley Flying Service and would like to show here your services, contact info, web link, logo, and more, click here
100LL
SS $5.50 
 Updated 12-May-2014
 
   write
SS=Self service
Update Fuel Prices
 

Would you like to see your business listed on this page?

 If your business provides an interesting product or service to pilots, flight crews, aircraft, or users of the James G Whiting Memorial Field Airport, you should consider listing it here.  To start the listing process, click on the button below
 
Add a business
 

Other Pages about James G Whiting Memorial Field Airport

www.mapleton.com/airport.htm
Page from the Iowa Airport Directory
 
Update a link
 
Copyright © AirNav, LLC. All rights reserved. Privacy Policy  Contact